Location: Camp Crooked Creek
(37.9149°N, 85.6607°W)
Time: 19:34:43
(UTC-05:00)

Amateur Radio Satellites - All Passes

Search period start: 02 March 2015 19:04
Search period end: 03 March 2015 19:04
Location: Camp Crooked Creek, 37.9149°N, 85.6607°W

Satellite Date Start Highest point End Downlink Frequencies (MHz)
Time Altitude Azimuth
AIST 1 02 Mar 19:04:56 19:09:22 80° 264° (W) 19:13:44
VERMONT LUNAR 02 Mar 19:11:42 19:15:11 73° 346° (NNW) 19:18:41 437.305
PHONESAT 2.4 02 Mar 19:14:29 19:18:07 75° 161° (SSE) 19:21:46 2401.200-2431.200
PRISM 02 Mar 19:16:20 19:20:35 83° 103° (ESE) 19:24:48 437.425
BRITE-PL 02 Mar 19:20:31 19:24:32 21° 68° (ENE) 19:28:37 437.365/2234.400
BEESAT 3 02 Mar 19:25:47 19:27:23 12° 318° (NW) 19:28:48 437.485
GOMX 1 02 Mar 19:26:59 19:29:55 16° 67° (ENE) 19:33:02 467.674
CANX-2 02 Mar 19:32:11 19:33:45 12° 67° (ENE) 19:35:32 2200.000
AIST 2 02 Mar 19:46:11 19:49:24 20° 313° (NW) 19:52:32 435.215
CUTE 1.7 + AOD 2 02 Mar 19:49:32 19:52:16 18° 69° (ENE) 19:55:08 437.475
DOVE 4 02 Mar 20:01:11 20:05:02 22° 69° (ENE) 20:08:53 437.250
CUBESAT XI-V 02 Mar 20:06:22 20:10:32 31° 289° (WNW) 20:14:36 437.345
STRAND 1 02 Mar 20:09:46 20:14:48 55° 287° (WNW) 20:19:48 437.568
CINEMA 3 02 Mar 20:11:16 20:13:36 14° 67° (ENE) 20:16:07 145.822/145.860
Oscar 11 02 Mar 20:26:25 20:28:26 13° 67° (ENE) 20:30:38 145.826/435.025
AAUSAT CUBESAT 2 02 Mar 20:32:33 20:36:11 31° 72° (ENE) 20:39:53 437.432
CUBEBUG 2 02 Mar 20:32:55 20:34:35 12° 67° (ENE) 20:36:29 437.445
COMPASS 1 02 Mar 20:34:52 20:38:43 39° 73° (ENE) 20:42:37 437.405
HO-68 02 Mar 20:35:40 20:42:47 80° 73° (ENE) 20:49:59 435.675
O/OREOS (USA 219) 02 Mar 20:41:16 20:45:19 30° 256° (WSW) 20:49:16 437.305
VERMONT LUNAR 02 Mar 20:49:52 20:53:19 54° 4° (N) 20:56:45 437.305
DX 1 02 Mar 20:50:46 20:52:39 13° 65° (ENE) 20:54:45 434.975-435.025
PCSat 02 Mar 20:51:00 20:56:15 56° 113° (ESE) 21:01:34 145.827
PHONESAT 2.4 02 Mar 20:53:06 20:56:42 55° 357° (N) 21:00:17 2401.200-2431.200
BRITE-PL 02 Mar 20:57:11 21:02:44 52° 261° (W) 21:08:04 437.365/2234.400
SEEDS 02 Mar 21:01:52 21:06:02 79° 258° (WSW) 21:10:14 437.485
GOMX 1 02 Mar 21:02:15 21:07:39 65° 260° (W) 21:12:49 467.674
CANX-2 02 Mar 21:05:10 21:09:18 53° 260° (W) 21:13:25 2200.000
FUNcube-1 02 Mar 21:09:52 21:13:00 20° 70° (ENE) 21:16:13 145.935
ZACube-1 02 Mar 21:11:00 21:14:14 21° 70° (ENE) 21:17:33 437.345
GONETS M04 02 Mar 21:14:17 21:20:50 26° 84° (E) 21:27:42
HUMSAT D 02 Mar 21:16:13 21:17:38 12° 67° (ENE) 21:19:17 437.325/437.525
UKube-1 02 Mar 21:18:35 21:22:04 24° 69° (ENE) 21:25:39 .
CUTE 1.7 + AOD 2 02 Mar 21:24:05 21:27:59 35° 263° (W) 21:31:51 437.475
UWE-3 02 Mar 21:29:09 21:33:20 41° 73° (ENE) 21:37:27 435.000/436.395/437.385
DOVE 4 02 Mar 21:37:43 21:42:36 40° 262° (W) 21:47:16 437.250
DELFI C3 02 Mar 21:39:53 21:43:54 73° 77° (ENE) 21:47:56 145.870
CINEMA 3 02 Mar 21:45:42 21:50:28 58° 260° (W) 21:55:02 145.822/145.860
RS-15 02 Mar 21:46:21 21:51:25 15° 101° (E) 21:57:25 29.354- 29.394
Oscar 11 02 Mar 22:00:03 22:04:14 50° 261° (W) 22:08:26 145.826/435.025
CUBEBUG 2 02 Mar 22:06:25 22:10:54 60° 260° (W) 22:15:17 437.445
AAUSAT CUBESAT 2 02 Mar 22:09:00 22:11:57 18° 267° (W) 22:14:46 437.432
ANTELSAT 02 Mar 22:11:00 22:12:15 11° 90° (E) 22:13:46 437.575/2403.000
COMPASS 1 02 Mar 22:12:11 22:14:39 15° 269° (W) 22:16:57 437.405
DX 1 02 Mar 22:24:11 22:28:29 56° 260° (W) 22:32:49 434.975-435.025
HO-68 02 Mar 22:26:57 22:31:24 16° 271° (W) 22:35:27 435.675
AISAT 02 Mar 22:27:31 22:31:57 61° 75° (ENE) 22:36:25 437.250
VERMONT LUNAR 02 Mar 22:27:50 22:31:19 69° 201° (SSW) 22:34:46 437.305
CUBEBUG 1 02 Mar 22:31:39 22:35:22 27° 70° (ENE) 22:39:09 437.445
PHONESAT 2.4 02 Mar 22:31:43 22:35:21 78° 12° (NNE) 22:38:59 2401.200-2431.200
PCSat 02 Mar 22:35:57 22:40:05 21° 312° (NW) 22:44:07 145.827
VELOX 1 02 Mar 22:36:58 22:41:26 75° 77° (ENE) 22:45:57 145.980
FUNcube-1 02 Mar 22:45:14 22:49:12 32° 263° (W) 22:53:04 145.935
50 SAT 02 Mar 22:45:18 22:49:17 88° 256° (WSW) 22:53:17 437.505
ZACube-1 02 Mar 22:46:34 22:50:29 31° 264° (W) 22:54:18 437.345
HUMSAT D 02 Mar 22:48:54 22:53:02 55° 260° (W) 22:57:08 437.325/437.525
ESTCUBE 1 02 Mar 22:52:52 22:57:14 51° 74° (ENE) 23:01:40 437.505/2401.250
NANOSAT C BR1 02 Mar 22:53:21 22:56:17 19° 93° (E) 22:59:20 145.865
UKube-1 02 Mar 22:54:26 22:58:10 27° 264° (W) 23:01:50 .
SPROUT 02 Mar 23:04:58 23:07:24 15° 67° (ENE) 23:10:00 437.525
UNISAT 6 02 Mar 23:06:31 23:10:43 51° 100° (E) 23:14:58 437.425
UWE-3 02 Mar 23:07:17 23:10:06 16° 268° (W) 23:12:41 435.000/436.395/437.385
GONETS M04 02 Mar 23:08:32 23:17:07 62° 281° (WNW) 23:25:42
TISAT 1 02 Mar 23:08:39 23:11:03 15° 67° (ENE) 23:13:36 437.305
QB50P1 02 Mar 23:25:22 23:29:25 45° 99° (E) 23:33:28 145.935-145.965
QB50P2 02 Mar 23:29:11 23:33:19 51° 100° (E) 23:37:26 145.880/145.840
TIGRISAT 02 Mar 23:31:31 23:35:48 82° 283° (WNW) 23:40:08 435.000
BUGSAT 1 02 Mar 23:35:23 23:39:20 42° 98° (E) 23:43:14 437.445
DUCHIFAT 1 02 Mar 23:44:08 23:48:21 76° 102° (ESE) 23:52:32 145.980
ANTELSAT 02 Mar 23:45:15 23:49:27 55° 285° (WNW) 23:53:42 437.575/2403.000
RS-15 02 Mar 23:51:24 00:02:17 79° 117° (ESE) 00:13:18 29.354- 29.394
DANDE 03 Mar 00:01:38 00:08:05 39° 96° (E) 00:13:10 436.750
POLYITAN 1 03 Mar 00:04:33 00:08:43 59° 285° (WNW) 00:12:50 437.675
POPSAT HIP 1 03 Mar 00:05:00 00:09:11 59° 285° (WNW) 00:13:18 437.405
VERMONT LUNAR 03 Mar 00:06:44 00:08:51 15° 214° (SW) 00:10:54 437.305
AISAT 03 Mar 00:07:31 00:09:03 11° 271° (W) 00:10:18 437.250
CUBEBUG 1 03 Mar 00:08:00 00:11:43 25° 266° (W) 00:15:22 437.445
PHONESAT 2.4 03 Mar 00:10:27 00:13:39 29° 209° (SSW) 00:16:48 2401.200-2431.200
SWISSCUBE 03 Mar 00:24:48 00:28:03 19° 67° (ENE) 00:31:29 437.505
NANOSAT C BR1 03 Mar 00:28:29 00:32:16 32° 289° (WNW) 00:35:59 145.865
CUSAT 1 03 Mar 00:30:38 00:37:15 85° 101° (E) 00:42:12 437.405
ESTCUBE 1 03 Mar 00:32:10 00:34:30 13° 270° (W) 00:36:37 437.505/2401.250
BEESAT 03 Mar 00:33:08 00:36:37 21° 68° (ENE) 00:40:16 436.000
SPROUT 03 Mar 00:39:00 00:43:11 44° 262° (W) 00:47:21 437.525
TISAT 1 03 Mar 00:42:26 00:46:33 44° 262° (W) 00:50:39 437.305
UNISAT 6 03 Mar 00:45:03 00:47:09 13° 293° (WNW) 00:49:04 437.425
SO-50 03 Mar 00:56:49 00:59:29 16° 110° (ESE) 01:02:24 436.795
ITUPSAT 1 03 Mar 00:59:35 01:03:58 38° 71° (ENE) 01:08:26 437.325
QB50P1 03 Mar 01:02:37 01:04:59 14° 293° (WNW) 01:07:09 145.935-145.965
QB50P2 03 Mar 01:06:50 01:08:50 13° 294° (WNW) 01:10:37 145.880/145.840
BUGSAT 1 03 Mar 01:12:08 01:14:30 15° 293° (WNW) 01:16:41 437.445
DANDE 03 Mar 01:45:34 01:51:24 28° 284° (WNW) 01:55:59 436.750
Oscar 19 03 Mar 01:49:45 01:54:38 44° 98° (E) 01:59:32 437.125/150
ITAMSAT 1 03 Mar 01:50:26 01:52:52 14° 89° (E) 01:55:36 435.822/435.867
SWISSCUBE 03 Mar 02:01:07 02:05:39 42° 262° (W) 02:10:12 437.505
BEESAT 3 03 Mar 02:05:49 02:09:24 28° 51° (NE) 02:12:59 437.485
RS-15 03 Mar 02:06:27 02:15:58 32° 323° (NW) 02:25:28 29.354- 29.394
BEESAT 03 Mar 02:09:50 02:14:16 37° 262° (W) 02:18:42 436.000
KKS-1 03 Mar 02:17:17 02:21:35 48° 74° (ENE) 02:25:55 437.445
CUSAT 1 03 Mar 02:18:43 02:20:18 11° 289° (WNW) 02:21:24 437.405
STARS 03 Mar 02:23:25 02:27:26 35° 72° (ENE) 02:31:30 437.465
AIST 2 03 Mar 02:30:40 02:33:40 19° 47° (NE) 02:36:45 435.215
BEESAT 2 03 Mar 02:31:21 02:35:20 44° 55° (NE) 02:39:17 435.950
SO-50 03 Mar 02:35:09 02:39:38 52° 305° (NW) 02:44:17 436.795
JUGNU 03 Mar 02:38:21 02:39:35 11° 171° (S) 02:40:54 437.505
ITUPSAT 1 03 Mar 02:38:28 02:42:03 20° 267° (W) 02:45:30 437.325
Gurwin Techsat 1B 03 Mar 03:01:27 03:06:39 53° 99° (E) 03:11:51 435.225
YUBILEINY 03 Mar 03:12:05 03:20:21 43° 74° (ENE) 03:28:41 435.215
JAS-2 03 Mar 03:23:01 03:24:53 11° 84° (E) 03:27:27 435.910
ITAMSAT 1 03 Mar 03:27:44 03:32:56 65° 286° (WNW) 03:38:04 435.822/435.867
Oscar 19 03 Mar 03:29:55 03:33:44 21° 293° (WNW) 03:37:24 437.125/150
AO-7 03 Mar 03:30:02 03:35:22 19° 90° (E) 03:41:08 29.400- 29.500
MOZHAYETS 4 03 Mar 03:32:42 03:35:02 14° 66° (ENE) 03:37:34
BEESAT 3 03 Mar 03:44:01 03:47:24 24° 247° (WSW) 03:50:39 437.485
KKS-1 03 Mar 03:56:02 03:58:34 14° 269° (W) 04:00:52 437.445
STARS 03 Mar 04:00:50 04:04:03 19° 267° (W) 04:07:08 437.465
AIST 2 03 Mar 04:08:28 04:12:31 43° 245° (WSW) 04:16:29 435.215
BEESAT 2 03 Mar 04:10:44 04:13:12 15° 250° (WSW) 04:15:28 435.950
HORYU 2 03 Mar 04:13:26 04:17:54 77° 101° (E) 04:22:21 437.375
JUGNU 03 Mar 04:25:10 04:27:46 13° 181° (S) 04:30:22 437.505
RS-15 03 Mar 04:27:18 04:33:27 16° 357° (N) 04:39:39 29.354- 29.394
SRMSAT 03 Mar 04:28:15 04:30:08 11° 173° (S) 04:32:04 437.500
M-CUBED/EXP-1 PRIME 03 Mar 04:33:20 04:36:30 43° 256° (WSW) 04:39:44 437.505
AUBIESAT-1 03 Mar 04:34:57 04:38:09 47° 256° (WSW) 04:41:27 437.475
Gurwin Techsat 1B 03 Mar 04:42:35 04:46:16 19° 295° (WNW) 04:49:45 435.225
JAS-2 03 Mar 05:03:37 05:11:08 71° 101° (E) 05:19:00 435.910
MOZHAYETS 4 03 Mar 05:07:25 05:11:52 53° 261° (W) 05:16:21
YUBILEINY 03 Mar 05:09:06 05:17:08 39° 272° (W) 05:24:57 435.215
AO-7 03 Mar 05:20:49 05:29:09 80° 289° (WNW) 05:37:25 29.400- 29.500
CUBESAT XI-V 03 Mar 05:31:31 05:34:52 20° 68° (ENE) 05:38:23 437.345
PCSat 03 Mar 05:40:51 05:45:39 32° 53° (NE) 05:50:29 145.827
STRAND 1 03 Mar 05:46:23 05:50:01 20° 66° (ENE) 05:53:49 437.568
PRISM 03 Mar 06:05:03 06:09:00 46° 73° (ENE) 06:13:02 437.425
SRMSAT 03 Mar 06:15:51 06:18:29 13° 183° (S) 06:21:05 437.500
RS-15 03 Mar 06:42:35 06:51:29 26° 31° (NNE) 07:01:01 29.354- 29.394
JAS-2 03 Mar 06:49:51 06:55:39 24° 296° (WNW) 07:01:26 435.910
Cubesat XI-IV 03 Mar 06:57:32 07:02:55 69° 102° (ESE) 07:08:15 437.490
CUTE-I 03 Mar 07:06:23 07:11:46 83° 102° (ESE) 07:17:08 437.470
CUBESAT XI-V 03 Mar 07:07:43 07:12:05 38° 263° (W) 07:16:29 437.345
AO-7 03 Mar 07:15:46 07:20:51 17° 307° (NW) 07:25:31 29.400- 29.500
STRAND 1 03 Mar 07:24:00 07:28:55 45° 261° (W) 07:33:52 437.568
PCSat 03 Mar 07:24:12 07:29:05 34° 250° (WSW) 07:33:52 145.827
GONETS M04 03 Mar 07:29:34 07:30:11 10° 55° (NE) 07:31:38
AIST 1 03 Mar 07:32:23 07:36:41 66° 95° (E) 07:41:03
PRISM 03 Mar 07:42:57 07:44:50 12° 270° (W) 07:46:32 437.425
HO-68 03 Mar 08:07:30 08:11:19 16° 89° (E) 08:15:35 435.675
Cubesat XI-IV 03 Mar 08:39:26 08:42:30 15° 297° (WNW) 08:45:18 437.490
CUTE-I 03 Mar 08:48:55 08:51:14 12° 298° (WNW) 08:53:15 437.470
SEEDS 03 Mar 08:49:00 08:52:01 19° 93° (E) 08:55:10 437.485
CANX-2 03 Mar 08:52:36 08:56:15 28° 95° (E) 08:59:59 2200.000
RS-15 03 Mar 08:54:37 09:06:08 79° 58° (ENE) 09:18:11 29.354- 29.394
BRITE-PL 03 Mar 09:04:47 09:09:15 60° 100° (E) 09:13:25 437.365/2234.400
GOMX 1 03 Mar 09:06:56 09:11:00 39° 97° (E) 09:14:56 467.674
ISS 03 Mar 09:07:33 09:10:46 80° 139° (SE) 09:14:00 145.825
CUTE 1.7 + AOD 2 03 Mar 09:10:50 09:14:53 42° 98° (E) 09:18:56 437.475
O/OREOS (USA 219) 03 Mar 09:12:14 09:16:22 36° 105° (ESE) 09:20:37 437.305
GONETS M04 03 Mar 09:20:42 09:29:21 62° 79° (E) 09:38:04
DELFI C3 03 Mar 09:23:50 09:25:08 11° 90° (E) 09:26:40 145.870
SO-50 03 Mar 09:29:20 09:31:41 13° 40° (NE) 09:34:13 436.795
DOVE 4 03 Mar 09:38:57 09:43:10 63° 101° (E) 09:47:16 437.250
CINEMA 3 03 Mar 09:42:55 09:46:43 34° 97° (E) 09:50:32 145.822/145.860
NANOSAT C BR1 03 Mar 09:45:53 09:47:37 13° 66° (ENE) 09:49:35 145.865
Oscar 11 03 Mar 09:49:19 09:53:11 32° 96° (E) 09:57:04 145.826/435.025
AAUSAT CUBESAT 2 03 Mar 09:52:26 09:56:38 79° 102° (ESE) 10:00:50 437.432
HO-68 03 Mar 09:52:46 09:59:59 84° 287° (WNW) 10:07:11 435.675
COMPASS 1 03 Mar 09:55:29 09:59:42 83° 283° (WNW) 10:03:55 437.405
CUBEBUG 2 03 Mar 09:59:46 10:03:24 29° 96° (E) 10:07:04 437.445
UNISAT 6 03 Mar 10:04:06 10:08:09 37° 72° (ENE) 10:12:10 437.425
DX 1 03 Mar 10:14:45 10:18:29 27° 96° (E) 10:22:13 434.975-435.025
QB50P1 03 Mar 10:16:48 10:20:26 28° 71° (ENE) 10:24:08 145.935-145.965
QB50P2 03 Mar 10:20:42 10:24:28 31° 72° (ENE) 10:28:18 145.880/145.840
AISAT 03 Mar 10:22:11 10:24:10 13° 90° (E) 10:26:24 437.250
BUGSAT 1 03 Mar 10:24:08 10:27:36 25° 70° (ENE) 10:31:09 437.445
SEEDS 03 Mar 10:24:09 10:27:56 31° 288° (WNW) 10:31:39 437.485
50 SAT 03 Mar 10:27:17 10:29:06 13° 91° (E) 10:31:07 437.505
TIGRISAT 03 Mar 10:28:30 10:32:54 70° 75° (ENE) 10:37:13 435.000
CANX-2 03 Mar 10:28:45 10:32:06 22° 290° (WNW) 10:35:20 2200.000
VELOX 1 03 Mar 10:30:49 10:33:31 16° 92° (E) 10:36:24 145.980
DUCHIFAT 1 03 Mar 10:34:55 10:38:59 44° 73° (ENE) 10:43:04 145.980
FUNcube-1 03 Mar 10:35:04 10:39:06 50° 99° (E) 10:43:10 145.935
HUMSAT D 03 Mar 10:35:24 10:38:48 25° 95° (E) 10:42:16 437.325/437.525
ZACube-1 03 Mar 10:36:31 10:40:35 53° 100° (E) 10:44:42 437.345
ANTELSAT 03 Mar 10:42:26 10:46:51 78° 258° (WSW) 10:51:13 437.575/2403.000
UKube-1 03 Mar 10:43:07 10:47:24 56° 100° (E) 10:51:39 .
ISS 03 Mar 10:45:28 10:47:33 16° 337° (NNW) 10:49:36 145.825
BRITE-PL 03 Mar 10:45:39 10:47:14 11° 296° (WNW) 10:48:33 437.365/2234.400
GOMX 1 03 Mar 10:46:11 10:48:51 16° 293° (WNW) 10:51:19 467.674
CUTE 1.7 + AOD 2 03 Mar 10:47:55 10:50:31 15° 292° (WNW) 10:52:57 437.475
ESTCUBE 1 03 Mar 10:49:24 10:51:15 13° 89° (E) 10:53:21 437.505/2401.250
O/OREOS (USA 219) 03 Mar 10:52:29 10:55:58 21° 302° (WNW) 10:59:22 437.305
POLYITAN 1 03 Mar 10:55:38 10:59:56 82° 77° (ENE) 11:04:14 437.675
POPSAT HIP 1 03 Mar 10:55:49 11:00:07 80° 77° (ENE) 11:04:25 437.405
DELFI C3 03 Mar 10:56:44 11:00:41 48° 286° (WNW) 11:04:38 145.870
UWE-3 03 Mar 10:57:05 11:01:13 68° 285° (WNW) 11:05:21 435.000/436.395/437.385
SO-50 03 Mar 11:08:03 11:13:02 86° 55° (NE) 11:17:57 436.795
RS-15 03 Mar 11:08:31 11:17:42 27° 255° (WSW) 11:26:35 29.354- 29.394
CUSAT 1 03 Mar 11:12:38 11:14:57 28° 77° (ENE) 11:17:22 437.405
GONETS M04 03 Mar 11:18:42 11:25:39 26° 276° (W) 11:32:17
NANOSAT C BR1 03 Mar 11:18:53 11:23:06 54° 260° (W) 11:27:17 145.865
CINEMA 3 03 Mar 11:20:58 11:23:44 17° 292° (WNW) 11:26:21 145.822/145.860
Oscar 11 03 Mar 11:25:56 11:29:12 20° 291° (WNW) 11:32:21 145.826/435.025
CUBEBUG 2 03 Mar 11:36:53 11:39:59 20° 290° (WNW) 11:42:58 437.445
UNISAT 6 03 Mar 11:42:06 11:45:07 17° 268° (W) 11:47:55 437.425
HO-68 03 Mar 11:42:45 11:46:48 16° 303° (WNW) 11:50:30 435.675
DX 1 03 Mar 11:51:06 11:54:39 24° 291° (WNW) 11:58:05 434.975-435.025
QB50P1 03 Mar 11:52:54 11:56:20 22° 266° (W) 11:59:40 145.935-145.965
AISAT 03 Mar 11:56:51 12:01:10 50° 287° (WNW) 12:05:26 437.250
QB50P2 03 Mar 11:57:15 12:00:29 20° 267° (W) 12:03:34 145.880/145.840
CUBEBUG 1 03 Mar 11:57:54 12:02:18 69° 101° (E) 12:06:39 437.445
BUGSAT 1 03 Mar 11:59:27 12:03:03 25° 265° (W) 12:06:33 437.445
50 SAT 03 Mar 12:00:38 12:04:22 39° 287° (WNW) 12:08:03 437.505
VELOX 1 03 Mar 12:06:09 12:10:20 41° 288° (WNW) 12:14:28 145.980
HUMSAT D 03 Mar 12:11:15 12:14:31 23° 290° (WNW) 12:17:42 437.325/437.525
DUCHIFAT 1 03 Mar 12:12:43 12:15:06 14° 269° (W) 12:17:17 145.980
FUNcube-1 03 Mar 12:13:16 12:15:05 12° 293° (WNW) 12:16:43 145.935
ZACube-1 03 Mar 12:14:59 12:16:35 12° 294° (WNW) 12:17:57 437.345
UKube-1 03 Mar 12:21:10 12:23:09 13° 295° (WNW) 12:24:55 .
ESTCUBE 1 03 Mar 12:24:05 12:28:34 55° 286° (WNW) 12:33:00 437.505/2401.250
SPROUT 03 Mar 12:27:38 12:31:33 34° 97° (E) 12:35:28 437.525
TISAT 1 03 Mar 12:29:09 12:32:55 31° 96° (E) 12:36:41 437.305
DANDE 03 Mar 12:30:24 12:32:08 16° 266° (W) 12:33:49 436.750
ITUPSAT 1 03 Mar 13:04:23 13:05:41 11° 88° (E) 13:07:20 437.325
Oscar 19 03 Mar 13:04:50 13:09:48 54° 73° (ENE) 13:14:50 437.125/150
ITAMSAT 1 03 Mar 13:06:27 13:09:59 19° 65° (ENE) 13:13:41 435.822/435.867
CUBEBUG 1 03 Mar 13:37:04 13:38:10 11° 296° (WNW) 13:39:00 437.445
ISS 03 Mar 14:01:45 14:02:47 11° 17° (NNE) 14:03:52 145.825
SWISSCUBE 03 Mar 14:03:00 14:07:45 56° 100° (E) 14:12:28 437.505
SPROUT 03 Mar 14:04:23 14:07:26 19° 292° (WNW) 14:10:22 437.525
TISAT 1 03 Mar 14:05:27 14:08:34 20° 291° (WNW) 14:11:32 437.305
BEESAT 03 Mar 14:11:27 14:16:14 63° 101° (E) 14:21:00 436.000
KKS-1 03 Mar 14:13:20 14:13:51 10° 89° (E) 14:14:40 437.445
Gurwin Techsat 1B 03 Mar 14:20:44 14:25:59 71° 75° (ENE) 14:31:19 435.225
AO-7 03 Mar 14:27:20 14:33:39 26° 58° (ENE) 14:40:14 29.400- 29.500
ITUPSAT 1 03 Mar 14:39:21 14:44:10 68° 286° (WNW) 14:48:56 437.325
ITAMSAT 1 03 Mar 14:44:04 14:49:08 50° 260° (W) 14:54:14 435.822/435.867
Oscar 19 03 Mar 14:46:19 14:49:34 16° 269° (W) 14:52:36 437.125/150
HORYU 2 03 Mar 15:10:04 15:14:24 56° 74° (ENE) 15:18:45 437.375
JAS-2 03 Mar 15:16:14 15:20:17 22° 63° (ENE) 15:24:51 435.910
ISS 03 Mar 15:36:43 15:39:52 47° 36° (NE) 15:43:01 145.825
SWISSCUBE 03 Mar 15:42:22 15:45:12 15° 295° (WNW) 15:47:50 437.505
KKS-1 03 Mar 15:46:36 15:51:01 63° 285° (WNW) 15:55:23 437.445
STARS 03 Mar 15:50:58 15:55:22 89° 284° (WNW) 15:59:44 437.465
BEESAT 03 Mar 15:51:10 15:53:37 14° 295° (WNW) 15:55:50 436.000
Gurwin Techsat 1B 03 Mar 16:04:11 16:06:37 13° 272° (W) 16:08:43 435.225
YUBILEINY 03 Mar 16:10:31 16:18:48 52° 91° (E) 16:27:15 435.215
M-CUBED/EXP-1 PRIME 03 Mar 16:16:44 16:19:11 15° 97° (E) 16:21:54 437.505
AO-7 03 Mar 16:17:30 16:25:50 71° 256° (WSW) 16:34:10 29.400- 29.500
AUBIESAT-1 03 Mar 16:18:13 16:20:22 14° 97° (E) 16:22:49 437.475
BEESAT 2 03 Mar 16:26:22 16:28:07 13° 110° (ESE) 16:30:06 435.950
Cubesat XI-IV 03 Mar 16:41:56 16:43:44 12° 62° (ENE) 16:45:49 437.490
VERMONT LUNAR 03 Mar 16:49:07 16:51:59 24° 149° (SSE) 16:54:53 437.305
CUTE-I 03 Mar 16:49:44 16:52:21 14° 63° (ENE) 16:55:14 437.470
HORYU 2 03 Mar 16:49:47 16:51:30 12° 270° (W) 16:52:56 437.375
JAS-2 03 Mar 16:59:43 17:04:58 49° 262° (W) 17:10:49 435.910
PHONESAT 2.4 03 Mar 17:00:17 17:02:24 15° 145° (SE) 17:04:38 2401.200-2431.200
MOZHAYETS 4 03 Mar 17:04:19 17:08:42 41° 98° (E) 17:13:06
ISS 03 Mar 17:14:02 17:16:02 15° 230° (SW) 17:17:58 145.825
BEESAT 3 03 Mar 17:35:09 17:39:14 86° 299° (WNW) 17:43:23 437.485
AIST 1 03 Mar 17:42:58 17:45:16 14° 70° (ENE) 17:47:46
M-CUBED/EXP-1 PRIME 03 Mar 17:50:07 17:54:18 49° 290° (WNW) 17:58:44 437.505
AUBIESAT-1 03 Mar 17:51:14 17:55:27 54° 290° (WNW) 17:59:57 437.475
BEESAT 2 03 Mar 18:01:54 18:05:55 51° 304° (NW) 18:10:00 435.950
AIST 2 03 Mar 18:04:30 18:08:40 60° 118° (ESE) 18:12:55 435.215
YUBILEINY 03 Mar 18:08:21 18:16:02 32° 290° (WNW) 18:23:34 435.215
Cubesat XI-IV 03 Mar 18:17:47 18:23:10 87° 256° (WSW) 18:28:36 437.490
AO-7 03 Mar 18:17:55 18:20:17 11° 275° (W) 18:21:48 29.400- 29.500
VERMONT LUNAR 03 Mar 18:26:10 18:29:39 86° 339° (NNW) 18:33:10 437.305
CUTE-I 03 Mar 18:26:31 18:31:52 73° 257° (WSW) 18:37:17 437.470
PHONESAT 2.4 03 Mar 18:36:52 18:40:28 66° 160° (SSE) 18:44:06 2401.200-2431.200
HO-68 03 Mar 18:38:14 18:39:26 11° 53° (NE) 18:41:07 435.675
MOZHAYETS 4 03 Mar 18:42:24 18:45:40 19° 292° (WNW) 18:48:48
